SCP
-0 -0 -0 -0 0 0 0 0 0 0 -0 -0 0 -0 -0 0 0 0 0 0 0 0 0 0 0 0 0 0 0 0 0 0 0 0 0 0 0 0 0 0 0 0 0
0 -0 0 0 0 0 0 0 0 0 0 0 0 0 0 0 0 0 0 0 0 0 0 0 0 0 -0 0 0 0 0 0 0 0 0 0 0 0 0 0 0 0 0
0 0 0 0 0 0 0 0 0 0 0 0 0 0 0 0 0 0 0 0 0 0 0 0 0 0 0 0 -0 0 0 0 0 0 0 0 0 0 0 0 0 0 0
0 0 0 0 0 0 0 0 0 0 0 0 0 0 0 0 0 0 0 0 0 0 0 0 -0 0 0 0 0 0 0 0 0 0 0 0 0 0 0 0 0 0 0
0 0 0 0 0 0 0 0 0 0 0 0 0 0 0 0 0 0 0 0 0 0 0 0 0 0 0 0 0 0 0 0 0 0 0 0 0 0 0 0 0 0 0
0 0 0 0 0 0 0 0 0 0 0 0 0 0 0 0 0 0 0 0 0 0 0 0 0 0 0 0 0 0 0 0 0 0 0 0 0 0 0 0 0 0 0
0 0 0 0 0 0 0 0 0 0 0 0 0 0 0 0 0 0 0 0 0 0 0 0 0 0 0 0 0 0 0 0 0 0 0 0 0 0 0 0 0 0 0
0 0 0 0 0 0 0 0 0 0 0 0 0 0 0 0 0 0 0 0 0 0 0 0 0 0 0 0 0 0 0 0 0 0 0 0 0 0 0 0 0 0 0
0 0 0 0 0 0 0 0 0 0 0 0 0 0 0 0 0 0 0 0 0 0 0 0 0 0 0 0 0 0 0 0 0 0 0 0 0 0 0 0 0 0 0
0 0 0 0 0 0 0 0 0 0 0 0 0 0 0 0 0 0 0 0 0 0 0 -0 0 0 0 0 0 0 0 0 0 0 0 0 0 0 0 0 0 0 0
0 0 0 0 0 0 0 0 0 0 0 0 0 0 0 0 0 0 0 0 0 0 0 0 -0 -0 -0 -0 -0 0 -0 -0 0 0 0 0 -0 -0 0 0 0 0 0
0 0 0 0 0 0 0 0 0 0 0 0 0 0 0 0 0 0 0 0 0 0 0 0 0 0 0 0 -0 0 0 0 0 0 0 0 -0 -0 -0 0 0 0 0
0 0 0 0 0 0 0 0 0 0 0 0 0 0 0 0 0 0 0 0 0 0 0 0 -0 -0 0 0 0 0 0 0 0 -0 0 0 -0 -0 -0 0 0 0 0
0 0 0 0 0 0 0 0 0 0 0 0 0 0 0 0 0 0 0 0 0 0 0 0 0 -0 0 0 0 0 0 0 0 -0 -0 -0 -0 -0 0 -0 0 0 0
0 0 0 0 0 0 0 0 0 0 0 0 0 0 0 0 0 0 0 0 0 0 0 0 0 0 0 0 0 0 0 0 0 0 0 0 0 0 0 0 0 0 0
0 0 0 0 0 0 0 0 0 0 0 0 0 0 0 0 0 0 0 0 0 0 0 0 0 0 0 0 0 0 0 0 0 0 0 0 0 0 0 0 0 0 0
0 0 0 0 0 0 0 0 0 0 0 0 0 0 0 0 0 0 0 0 0 0 0 0 0 0 0 0 0 0 0 0 0 0 0 0 0 0 0 0 0 0 0
0 0 0 0 0 0 0 0 0 0 0 0 0 0 0 0 0 0 0 0 0 0 0 0 0 0 0 0 0 0 0 0 0 0 0 0 0 0 0 0 0 0 0
0 0 0 -0 0 0 0 0 0 0 0 0 0 0 0 0 0 0 0 0 0 0 0 0 0 0 0 0 0 0 0 0 0 0 0 0 0 0 0 0 0 0 0
0 0 -0 0 -0 0 0 0 0 0 0 0 0 0 0 0 0 0 0 0 0 0 0 0 0 0 0 0 0 0 0 0 0 0 0 0 0 0 0 0 0 0 0
0 -0 -0 0 0 0 0 0 0 0 0 0 0 0 0 0 0 0 0 0 0 0 0 0 0 0 0 0 0 0 0 0 0 0 0 0 0 0 0 0 0 0 0
0 0 0 -0 0 0 0 0 0 0 0 0 0 0 0 0 0 0 0 0 0 0 0 0 0 0 0 0 0 0 0 0 0 0 0 0 0 0 0 0 0 0 0
0 0 0 0 0 0 0 -0 0 0 0 0 0 0 0 0 0 0 0 0 0 0 0 0 0 0 0 0 0 0 0 0 0 0 0 0 0 0 0 0 0 0 -0
0 0 0 0 0 0 -0 -0 0 0 0 -0 0 0 0 0 0 0 -0 -0 0 0 0 0 0 0 0 0 0 0 0 0 0 0 0 0 0 0 0 0 -0 0 0
0 0 0 0 -0 -0 -0 0 0 0 0 0 0 0 0 0 0 0 0 0 -0 0 0 0 0 0 0 0 0 0 0 0 0 0 0 0 0 0 0 0 0 0 0
-0 -0 0 0 -0 -0 -0 0 0 0 -0 -0 -0 0 0 0 0 0 0 0 0 -0 -0 0 0 0 0 0 0 0 0 0 0 0 0 0 0 0 0 0 0 0 0
Wind_Speed_500mb
28 25 20 18 13 14 12 21 29 37 36 24 29 31 30 34 18 21 20 16 26 38 37 41 35 33 32 27 24 30 28 28 24 18 11 9 7 21 20 24 18 18 16
21 15 13 15 14 10 14 26 27 25 23 22 40 41 32 32 32 33 27 28 29 31 39 33 35 31 32 33 29 28 30 29 20 22 10 11 3 9 21 12 16 16 18
21 15 13 13 8 13 22 21 14 17 26 41 47 38 34 27 30 35 29 31 29 23 29 30 40 36 27 31 32 28 25 26 12 20 19 3 3 6 10 19 16 15 11
18 13 9 16 16 19 13 22 19 30 39 44 47 43 37 38 34 34 34 31 18 17 25 29 35 27 27 26 25 20 17 14 8 16 17 21 13 7 10 18 19 17 13
15 8 17 22 21 16 18 21 29 35 49 41 39 43 40 31 25 24 24 20 16 27 31 32 26 24 21 18 17 12 10 9 8 9 6 8 16 15 14 11 14 22 23
6 6 18 19 21 13 18 20 32 44 42 41 43 41 32 31 31 34 32 29 20 21 24 25 21 15 13 12 11 8 6 6 7 11 8 6 9 7 9 8 7 10 6
25 16 18 19 22 26 27 31 38 40 42 42 38 42 42 36 35 33 31 28 22 22 22 20 13 12 11 11 12 11 8 4 4 8 7 5 8 8 4 2 2 3 4
10 17 14 23 36 26 22 28 35 39 40 39 40 43 39 42 39 34 32 24 20 20 16 11 11 13 12 12 22 13 10 11 10 13 13 16 11 4 5 2 3 4 5
26 33 38 38 32 31 39 47 39 40 38 41 43 45 45 33 32 35 31 22 14 15 21 15 11 11 11 20 29 28 25 20 19 18 22 17 10 6 4 3 4 3 5
34 37 30 24 26 34 38 44 34 33 36 46 50 44 41 38 35 36 26 22 20 15 15 20 18 10 15 20 30 32 34 28 25 20 20 12 9 11 10 5 4 8 11
37 31 29 28 34 42 32 33 32 35 38 45 45 38 34 37 43 34 29 24 20 25 20 21 20 20 14 16 20 22 24 28 29 25 24 21 12 5 2 4 7 10 8
25 29 27 32 36 37 32 30 33 35 40 42 50 40 37 33 31 36 29 24 18 16 18 18 15 13 11 9 14 13 16 17 17 17 14 10 5 8 9 8 6 6 10
26 26 26 32 39 32 27 25 27 37 38 39 41 43 49 38 37 33 28 22 19 18 18 19 16 17 20 3 7 9 11 10 8 11 13 10 8 14 11 10 7 5 15
30 22 29 30 31 26 28 25 32 37 35 39 40 41 47 39 38 31 29 27 25 21 19 19 13 21 23 14 11 12 9 9 7 5 9 13 13 8 6 10 8 7 10
27 23 25 24 25 27 26 30 29 33 37 39 39 43 33 35 39 39 38 34 24 16 16 16 14 18 16 14 13 14 10 11 9 12 20 18 19 21 19 16 12 9 10
22 17 21 19 26 25 24 26 30 31 35 36 36 37 37 37 34 36 36 36 31 32 25 25 25 21 20 16 11 9 6 11 7 14 18 24 21 24 24 28 27 27 25
21 23 19 20 21 16 19 24 24 28 33 32 42 34 37 28 35 35 36 42 45 38 34 34 34 31 30 32 34 34 30 23 21 28 25 27 28 26 25 30 30 28 27
19 17 15 15 15 16 20 25 20 21 27 30 34 40 38 38 32 34 38 41 44 42 36 30 36 39 39 36 37 43 46 43 35 31 33 31 27 23 19 20 22 26 26
17 17 13 13 13 16 21 19 22 23 20 25 32 34 30 35 36 32 34 31 32 34 40 37 40 40 39 35 33 33 33 32 37 35 32 30 30 28 26 23 27 23 18
14 14 17 15 11 17 18 22 18 19 23 19 28 26 27 31 38 38 33 32 33 44 46 46 38 32 31 30 30 29 24 26 29 28 27 29 28 25 25 24 25 19 23
15 12 11 14 18 22 20 23 17 19 18 22 25 27 26 31 35 33 35 37 36 28 31 32 34 32 28 29 30 28 31 22 21 23 19 18 18 21 22 24 28 35 38
7 9 3 10 13 16 17 16 20 17 15 19 21 23 25 28 27 24 21 27 27 26 22 24 29 23 20 18 18 16 15 18 17 15 15 12 15 19 17 14 21 26 28
4 10 7 11 14 17 13 10 12 12 18 19 20 19 22 22 24 32 20 11 13 19 19 16 13 12 16 6 9 9 10 11 17 18 18 19 18 23 27 20 22 26 23
4 9 8 11 11 10 10 9 12 15 9 11 15 17 12 13 18 25 34 33 19 13 12 7 10 13 10 6 5 3 2 11 16 24 24 23 23 23 24 29 34 33 29
1 4 3 7 5 9 12 13 13 13 10 11 13 16 17 18 23 18 17 24 31 34 30 17 15 14 16 14 8 4 6 14 22 20 18 19 21 22 24 26 31 34 24
8 4 3 9 4 7 6 9 9 13 8 11 10 15 18 25 24 27 20 14 18 28 39 29 26 20 16 19 18 11 12 16 14 17 22 23 24 24 24 29 28 29 33
Wind_Direction_500mb
102 89 101 73 54 41 48 15 6 9 6 29 11 358 350 336 1 4 352 326 317 310 312 312 302 298 293 296 309 313 314 316 305 283 278 248 265 222 222 231 245 253 275
103 110 99 64 62 55 7 5 7 16 10 4 355 352 328 317 322 318 329 326 329 330 322 315 314 310 297 296 292 297 305 307 283 256 295 315 319 177 219 235 244 262 264
113 115 105 90 50 351 18 21 9 6 346 348 353 345 333 321 321 322 316 320 316 312 324 315 324 317 314 309 302 300 301 305 281 234 231 255 134 153 189 208 240 229 240
120 102 73 355 49 56 42 357 354 353 355 355 348 343 348 339 325 322 318 318 323 307 309 309 323 316 323 316 315 313 304 294 272 231 241 237 259 261 200 216 224 206 250
128 64 54 44 53 42 7 3 358 352 346 345 347 344 342 343 340 336 332 326 315 308 313 317 325 318 322 326 334 327 306 282 236 248 239 240 259 237 228 235 231 239 265
55 56 37 54 43 12 0 337 340 346 349 348 346 344 347 347 343 334 328 324 309 306 324 326 332 341 337 340 340 323 297 246 231 241 228 196 194 189 200 198 227 263 278
80 64 56 58 12 21 1 350 346 346 347 351 352 351 349 346 343 343 345 338 326 318 338 343 1 8 14 12 1 332 315 41 101 190 163 114 133 139 156 290 216 198 215
52 39 73 50 35 29 16 2 354 353 7 11 355 351 356 348 351 355 351 349 343 348 354 20 41 45 22 21 26 23 75 96 92 124 126 134 119 121 339 250 176 192 37
91 90 67 55 35 14 2 2 6 15 6 2 355 351 349 355 359 354 353 356 21 61 56 41 59 66 49 44 37 61 70 89 98 114 128 126 80 44 99 135 146 285 302
81 79 66 48 21 11 7 2 25 13 5 6 360 7 18 13 6 4 19 31 47 79 70 62 59 69 54 65 66 67 63 66 81 100 126 104 132 96 92 137 223 312 287
90 65 44 22 16 9 16 15 24 19 7 3 7 9 13 25 24 34 35 47 53 60 57 51 53 45 53 57 54 49 58 63 64 81 100 97 88 76 257 322 301 295 281
76 52 26 11 13 15 17 32 23 12 8 4 15 22 19 16 22 31 46 52 56 64 54 47 42 34 37 43 77 62 56 53 59 55 82 89 32 352 6 1 341 348 310
72 46 25 22 28 24 28 32 18 10 23 19 21 29 28 24 26 33 36 40 52 55 59 48 33 25 7 56 99 97 76 61 47 8 358 26 355 334 330 336 351 33 85
60 54 32 35 31 27 21 35 22 17 14 13 15 25 28 26 36 37 37 36 40 47 49 47 48 33 28 110 89 97 100 103 85 17 356 349 348 4 21 46 82 105 60
59 49 37 23 24 28 30 30 28 14 12 12 21 27 20 31 38 43 42 38 40 43 45 50 30 27 40 68 87 93 81 84 79 32 37 56 74 79 76 65 64 54 39
62 45 27 24 29 42 34 28 24 18 14 17 29 19 21 23 39 40 38 35 44 55 62 51 51 55 60 70 81 103 131 162 87 83 82 71 76 84 82 79 72 68 66
61 49 43 22 66 34 19 25 24 13 15 25 19 28 34 40 34 37 51 53 48 56 63 63 64 61 75 73 80 79 79 85 88 93 84 73 71 66 69 71 65 57 47
43 16 24 32 46 17 24 22 27 13 12 32 41 47 43 51 56 61 56 35 35 37 48 69 75 73 82 80 80 83 76 70 72 80 84 79 67 65 63 50 51 42 34
44 27 28 66 25 16 7 25 27 9 42 68 46 44 55 58 48 35 28 30 28 46 61 67 69 74 73 74 67 63 66 69 72 68 70 68 67 64 60 57 48 41 30
42 22 49 55 13 6 16 29 31 33 51 47 36 48 50 50 48 43 39 59 68 77 75 73 69 66 70 67 67 63 67 77 74 68 70 69 62 56 51 41 28 23 28
43 36 48 5 19 5 38 35 42 39 44 54 52 56 60 53 56 60 66 56 63 68 70 67 61 58 65 66 64 67 78 78 58 47 50 49 42 34 33 32 37 25 18
48 8 59 4 357 7 39 53 65 64 65 49 65 67 54 48 44 27 56 60 60 64 65 59 55 61 62 75 70 83 69 76 67 50 42 12 7 11 23 45 45 27 18
56 6 41 7 8 3 73 73 78 63 90 63 61 59 51 47 36 30 38 48 72 81 71 78 50 46 53 73 52 75 46 39 40 20 26 40 53 51 56 69 39 17 356
20 2 52 21 14 43 65 84 81 97 43 56 64 46 31 358 352 19 47 52 45 34 14 16 357 353 355 2 33 133 11 51 39 64 55 51 54 50 50 41 29 22 46
75 25 337 20 23 44 91 99 76 43 62 42 34 29 26 3 342 346 13 43 49 43 33 31 29 28 32 44 76 96 62 38 48 46 39 38 36 31 24 21 28 26 26
256 234 324 102 110 83 51 101 52 67 33 59 37 10 355 343 324 322 312 348 33 38 34 42 49 46 59 69 58 60 80 51 59 50 49 42 35 30 28 25 34 26 23
Wind_Speed_850mb
28 25 20 18 13 14 12 21 29 37 36 24 29 31 30 34 18 21 20 16 26 38 37 41 35 33 32 27 24 30 28 28 24 18 11 9 7 21 20 24 18 18 16
21 15 13 15 14 10 14 26 27 25 23 22 40 41 32 32 32 33 27 28 29 31 39 33 35 31 32 33 29 28 30 29 20 22 10 11 3 9 21 12 16 16 18
21 15 13 13 8 13 22 21 14 17 26 41 47 38 34 27 30 35 29 31 29 23 29 30 40 36 27 31 32 28 25 26 12 20 19 3 3 6 10 19 16 15 11
18 13 9 16 16 19 13 22 19 30 39 44 47 43 37 38 34 34 34 31 18 17 25 29 35 27 27 26 25 20 17 14 8 16 17 21 13 7 10 18 19 17 13
15 8 17 22 21 16 18 21 29 35 49 41 39 43 40 31 25 24 24 20 16 27 31 32 26 24 21 18 17 12 10 9 8 9 6 8 16 15 14 11 14 22 23
6 6 18 19 21 13 18 20 32 44 42 41 43 41 32 31 31 34 32 29 20 21 24 25 21 15 13 12 11 8 6 6 7 11 8 6 9 7 9 8 7 10 6
25 16 18 19 22 26 27 31 38 40 42 42 38 42 42 36 35 33 31 28 22 22 22 20 13 12 11 11 12 11 8 4 4 8 7 5 8 8 4 2 2 3 4
10 17 14 23 36 26 22 28 35 39 40 39 40 43 39 42 39 34 32 24 20 20 16 11 11 13 12 12 22 13 10 11 10 13 13 16 11 4 5 2 3 4 5
26 33 38 38 32 31 39 47 39 40 38 41 43 45 45 33 32 35 31 22 14 15 21 15 11 11 11 20 29 28 25 20 19 18 22 17 10 6 4 3 4 3 5
34 37 30 24 26 34 38 44 34 33 36 46 50 44 41 38 35 36 26 22 20 15 15 20 18 10 15 20 30 32 34 28 25 20 20 12 9 11 10 5 4 8 11
37 31 29 28 34 42 32 33 32 35 38 45 45 38 34 37 43 34 29 24 20 25 20 21 20 20 14 16 20 22 24 28 29 25 24 21 12 5 2 4 7 10 8
25 29 27 32 36 37 32 30 33 35 40 42 50 40 37 33 31 36 29 24 18 16 18 18 15 13 11 9 14 13 16 17 17 17 14 10 5 8 9 8 6 6 10
26 26 26 32 39 32 27 25 27 37 38 39 41 43 49 38 37 33 28 22 19 18 18 19 16 17 20 3 7 9 11 10 8 11 13 10 8 14 11 10 7 5 15
30 22 29 30 31 26 28 25 32 37 35 39 40 41 47 39 38 31 29 27 25 21 19 19 13 21 23 14 11 12 9 9 7 5 9 13 13 8 6 10 8 7 10
27 23 25 24 25 27 26 30 29 33 37 39 39 43 33 35 39 39 38 34 24 16 16 16 14 18 16 14 13 14 10 11 9 12 20 18 19 21 19 16 12 9 10
22 17 21 19 26 25 24 26 30 31 35 36 36 37 37 37 34 36 36 36 31 32 25 25 25 21 20 16 11 9 6 11 7 14 18 24 21 24 24 28 27 27 25
21 23 19 20 21 16 19 24 24 28 33 32 42 34 37 28 35 35 36 42 45 38 34 34 34 31 30 32 34 34 30 23 21 28 25 27 28 26 25 30 30 28 27
19 17 15 15 15 16 20 25 20 21 27 30 34 40 38 38 32 34 38 41 44 42 36 30 36 39 39 36 37 43 46 43 35 31 33 31 27 23 19 20 22 26 26
17 17 13 13 13 16 21 19 22 23 20 25 32 34 30 35 36 32 34 31 32 34 40 37 40 40 39 35 33 33 33 32 37 35 32 30 30 28 26 23 27 23 18
14 14 17 15 11 17 18 22 18 19 23 19 28 26 27 31 38 38 33 32 33 44 46 46 38 32 31 30 30 29 24 26 29 28 27 29 28 25 25 24 25 19 23
15 12 11 14 18 22 20 23 17 19 18 22 25 27 26 31 35 33 35 37 36 28 31 32 34 32 28 29 30 28 31 22 21 23 19 18 18 21 22 24 28 35 38
7 9 3 10 13 16 17 16 20 17 15 19 21 23 25 28 27 24 21 27 27 26 22 24 29 23 20 18 18 16 15 18 17 15 15 12 15 19 17 14 21 26 28
4 10 7 11 14 17 13 10 12 12 18 19 20 19 22 22 24 32 20 11 13 19 19 16 13 12 16 6 9 9 10 11 17 18 18 19 18 23 27 20 22 26 23
4 9 8 11 11 10 10 9 12 15 9 11 15 17 12 13 18 25 34 33 19 13 12 7 10 13 10 6 5 3 2 11 16 24 24 23 23 23 24 29 34 33 29
1 4 3 7 5 9 12 13 13 13 10 11 13 16 17 18 23 18 17 24 31 34 30 17 15 14 16 14 8 4 6 14 22 20 18 19 21 22 24 26 31 34 24
8 4 3 9 4 7 6 9 9 13 8 11 10 15 18 25 24 27 20 14 18 28 39 29 26 20 16 19 18 11 12 16 14 17 22 23 24 24 24 29 28 29 33
Wind_Direction_850mb
102 89 101 73 54 41 48 15 6 9 6 29 11 358 350 336 1 4 352 326 317 310 312 312 302 298 293 296 309 313 314 316 305 283 278 248 265 222 222 231 245 253 275
103 110 99 64 62 55 7 5 7 16 10 4 355 352 328 317 322 318 329 326 329 330 322 315 314 310 297 296 292 297 305 307 283 256 295 315 319 177 219 235 244 262 264
113 115 105 90 50 351 18 21 9 6 346 348 353 345 333 321 321 322 316 320 316 312 324 315 324 317 314 309 302 300 301 305 281 234 231 255 134 153 189 208 240 229 240
120 102 73 355 49 56 42 357 354 353 355 355 348 343 348 339 325 322 318 318 323 307 309 309 323 316 323 316 315 313 304 294 272 231 241 237 259 261 200 216 224 206 250
128 64 54 44 53 42 7 3 358 352 346 345 347 344 342 343 340 336 332 326 315 308 313 317 325 318 322 326 334 327 306 282 236 248 239 240 259 237 228 235 231 239 265
55 56 37 54 43 12 0 337 340 346 349 348 346 344 347 347 343 334 328 324 309 306 324 326 332 341 337 340 340 323 297 246 231 241 228 196 194 189 200 198 227 263 278
80 64 56 58 12 21 1 350 346 346 347 351 352 351 349 346 343 343 345 338 326 318 338 343 1 8 14 12 1 332 315 41 101 190 163 114 133 139 156 290 216 198 215
52 39 73 50 35 29 16 2 354 353 7 11 355 351 356 348 351 355 351 349 343 348 354 20 41 45 22 21 26 23 75 96 92 124 126 134 119 121 339 250 176 192 37
91 90 67 55 35 14 2 2 6 15 6 2 355 351 349 355 359 354 353 356 21 61 56 41 59 66 49 44 37 61 70 89 98 114 128 126 80 44 99 135 146 285 302
81 79 66 48 21 11 7 2 25 13 5 6 360 7 18 13 6 4 19 31 47 79 70 62 59 69 54 65 66 67 63 66 81 100 126 104 132 96 92 137 223 312 287
90 65 44 22 16 9 16 15 24 19 7 3 7 9 13 25 24 34 35 47 53 60 57 51 53 45 53 57 54 49 58 63 64 81 100 97 88 76 257 322 301 295 281
76 52 26 11 13 15 17 32 23 12 8 4 15 22 19 16 22 31 46 52 56 64 54 47 42 34 37 43 77 62 56 53 59 55 82 89 32 352 6 1 341 348 310
72 46 25 22 28 24 28 32 18 10 23 19 21 29 28 24 26 33 36 40 52 55 59 48 33 25 7 56 99 97 76 61 47 8 358 26 355 334 330 336 351 33 85
60 54 32 35 31 27 21 35 22 17 14 13 15 25 28 26 36 37 37 36 40 47 49 47 48 33 28 110 89 97 100 103 85 17 356 349 348 4 21 46 82 105 60
59 49 37 23 24 28 30 30 28 14 12 12 21 27 20 31 38 43 42 38 40 43 45 50 30 27 40 68 87 93 81 84 79 32 37 56 74 79 76 65 64 54 39
62 45 27 24 29 42 34 28 24 18 14 17 29 19 21 23 39 40 38 35 44 55 62 51 51 55 60 70 81 103 131 162 87 83 82 71 76 84 82 79 72 68 66
61 49 43 22 66 34 19 25 24 13 15 25 19 28 34 40 34 37 51 53 48 56 63 63 64 61 75 73 80 79 79 85 88 93 84 73 71 66 69 71 65 57 47
43 16 24 32 46 17 24 22 27 13 12 32 41 47 43 51 56 61 56 35 35 37 48 69 75 73 82 80 80 83 76 70 72 80 84 79 67 65 63 50 51 42 34
44 27 28 66 25 16 7 25 27 9 42 68 46 44 55 58 48 35 28 30 28 46 61 67 69 74 73 74 67 63 66 69 72 68 70 68 67 64 60 57 48 41 30
42 22 49 55 13 6 16 29 31 33 51 47 36 48 50 50 48 43 39 59 68 77 75 73 69 66 70 67 67 63 67 77 74 68 70 69 62 56 51 41 28 23 28
43 36 48 5 19 5 38 35 42 39 44 54 52 56 60 53 56 60 66 56 63 68 70 67 61 58 65 66 64 67 78 78 58 47 50 49 42 34 33 32 37 25 18
48 8 59 4 357 7 39 53 65 64 65 49 65 67 54 48 44 27 56 60 60 64 65 59 55 61 62 75 70 83 69 76 67 50 42 12 7 11 23 45 45 27 18
56 6 41 7 8 3 73 73 78 63 90 63 61 59 51 47 36 30 38 48 72 81 71 78 50 46 53 73 52 75 46 39 40 20 26 40 53 51 56 69 39 17 356
20 2 52 21 14 43 65 84 81 97 43 56 64 46 31 358 352 19 47 52 45 34 14 16 357 353 355 2 33 133 11 51 39 64 55 51 54 50 50 41 29 22 46
75 25 337 20 23 44 91 99 76 43 62 42 34 29 26 3 342 346 13 43 49 43 33 31 29 28 32 44 76 96 62 38 48 46 39 38 36 31 24 21 28 26 26
256 234 324 102 110 83 51 101 52 67 33 59 37 10 355 343 324 322 312 348 33 38 34 42 49 46 59 69 58 60 80 51 59 50 49 42 35 30 28 25 34 26 23